NOAA 16 DEB, 41153

Orbit data source: Space-Track

NOAA 16 DEB, 41153 is space debris in SSO originally from a launch on Thu, 21 Sep 2000 UTC launched from the Air Force Western Test Range (AFWTR). Debris objects in space refer to the collection of defunct objects orbiting the Earth. Examples of debris include non-operational satellites, rocket bodies, and fragments generated from explosions, collisions, or faulty payload assembly.

Loading next visibility...
Identifier
41153, 2000-055CL
Orbit
SSO
Country
Flag of USUS
Related business
Manufacturer
Unknown
Mission
Spacecraft
Bus & Motor
Unknown
Mass
Unknown
Launch date (UTC)
2000-09-21 (26 years ago)
Launch vehicle
Unknown
Launch site
Air Force Western Test Range (AFWTR)
Object type
Payload
Rocket body
Debris
Shape & HBR
Unknown shape, 0.1 m
Radar Cross Section
Medium (>0.1 m² and <1 m²)

Expand to show TLE details & history
Last TLE update: 14 hours ago

TLE from 14 hours ago
0 NOAA 16 DEB
1 41153U 00055CL  26257.55623834  .00003741  00000-0  12218-2 0  9993
2 41153  98.7959  15.7186 0016140 230.4488 129.5273 14.39121574559568
Epoch: 2026-09-14T13:20Z
TLE epoch observation values (Epoch: 2026-09-14T13:20:58.992Z)
Latitude
-0.00006°
Longitude
-178.06203°
Altitude
771.686 km
Speed
7.464 km/s
True Right ascension
01h 02m 52s
True Declination
0° 00' 00"
Sunlit
Object was in full shadow at epoch
Visualization orbit readout
Latitude
Unknown
Longitude
Unknown
Altitude
Unknown
Speed
Unknown
Apparent Right ascension
Unknown
Apparent Declination
Unknown
Sunlit
N/A
Visualization observer readout
Local Sidereal Time
20:06:34
Azimuth
Unknown
Elevation
Unknown
Doppler factor
Unknown
Orbital elements
Apogee altitude
770.058 km
Perigee altitude
747.021 km
Semi-major axis
7,136.677 km
Eccentricity
0.00161
Inclination
98.7959°
RAAN
15.7186°
Arg. of periapsis
230.4488°
True anomaly
129.66977°
Mean anomaly
129.5273°
Eccentric anomaly
129.59855°
Mean motion
3.59997 °/min
Orbital period
100 mins
BSTAR
0.0012218
Loading maneuver chart data...
Computing Atmospheric mass density...
Loading historical data...
Loading historical data...
Loading historical data...
Loading historical data...
Loading historical data...
Loading historical data...
Loading historical data...

Documentation

Showing up to 5 results
|